Regional Weather Roundup
Issued by NWS Albany, NY

Home | Current Version | Previous Version | Text Only | Print | Product List | Glossary On
Versions: 1 2 3 4 5 6 7 8 9 10 11 12 13 14 15 16 17 18 19 20 21 22 23 24 25 26 27 28 29 30 31 32 33 34 35 36 37 38 39 40 41 42 43 44 45 46 47 48 49 50
336
ASUS41 KALY 221310
RWRALY

NEW YORK STATE HOURLY WEATHER ROUNDUP
NATIONAL WEATHER SERVICE ALBANY NY
900 AM EDT TUE AUG 22 2017

NOTE: "FAIR" INDICATES FEW OR NO CLOUDS BELOW 12,000 FEET WITH NO
SIGNIFICANT WEATHER AND/OR NO OBSTRUCTIONS TO VISIBILITY.

NYZ032-033-038>043-046>054-057>066-NYZ062>081-082-084-221400-
EAST


CITY           SKY/WX    TMP DP  RH WIND       PRES   REMARKS
ALBANY         MOSUNNY   74  68  81 S9        29.95F
GLENS FALLS    CLOUDY    72  69  90 SW5       29.95F FOG
POUGHKEEPSIE   MOSUNNY   77  70  79 VRB3      29.98F
NEWBURGH       SUNNY     73  73 100 CALM      30.02F
MONTGOMERY     SUNNY     76  71  85 SW9       30.00F
WHITE PLAINS   MOSUNNY   78  71  79 SW6       30.02F
ISLIP          CLOUDY    77  74  90 SW8       30.02F
NEW YORK CITY  PTSUNNY   77  74  90 S8        30.01F
CENTRAL PARK   MOSUNNY   77  72  84 VRB7      30.04F HAZE
$$

NYZ005>009-017-018-044>046-055-056-221400-
CENTRAL


CITY           SKY/WX    TMP DP  RH WIND       PRES   REMARKS
FULTON         SUNNY     78  71  79 S9        29.86F
SYRACUSE       MOSUNNY   78  70  76 S9        29.87F
ROME           MOSUNNY   72  69  90 E8        29.92F
ELMIRA         MOSUNNY   71  56  58 CALM      29.94F
BINGHAMTON     MOSUNNY   71  69  93 S7        30.00F
MONTICELLO     PTSUNNY   70  68  94 CALM      30.05F FOG
$$

NYZ026>034-041>043-087-221400-
NORTH


CITY           SKY/WX    TMP DP  RH WIND       PRES   REMARKS
WATERTOWN      MOSUNNY   76  71  85 S10G18    29.82F
FORT DRUM      NOT AVBL
OGDENSBURG     FAIR      73  67  83 S6        29.80F
MASSENA        CLOUDY    74  68  81 S7        29.82F
SARANAC LAKE   CLOUDY    70  66  87 S6        29.91F
PLATTSBURGH    SUNNY     74  64  71 S6        29.88F
$$

NYZ001>004-010>016-019>021-085-221400-
WEST


CITY           SKY/WX    TMP DP  RH WIND       PRES   REMARKS
NIAGARA FALLS  MOSUNNY   80  68  66 SW21      29.81F
BUFFALO        PTSUNNY   80  68  66 SW15      29.83F
DUNKIRK        MOSUNNY   78  69  73 S14       29.86F
JAMESTOWN      MOSUNNY   73  68  84 S8        29.95F
WELLSVILLE     SUNNY     74  67  78 SW12G18   30.00F
ROCHESTER      MOSUNNY   78  69  73 SW15G24   29.84F
PENN YAN       SUNNY     77  67  71 S14G20    29.92F
$$

             KEY
       WCI = WIND CHILL INDEX
       VSB = VISIBILITY
       HX  = HEAT INDEX
$$




USA.gov is the U.S. government's official web portal to all federal, state and local government web resources and services.